| time (UTC) | temp F | wind direction | speed knots | gust knots | rain 1hr in | rain 24hr in | rain mn in | humidity % | barometer mb |
| 20260505213029 | 78 | 169 | 3.5 | 8.7 | 0.00 | 0.00 | 0.00 | 37 | 1014.8 |
| 20260505211528 | 78 | 185 | 5.2 | 11.3 | 0.00 | 0.00 | 0.00 | 36 | 1015.1 |
| 20260505210018 | 77 | 250 | 2.6 | 7.8 | 0.00 | 0.00 | 0.00 | 38 | 1015.1 |
| 20260505204521 | 78 | 232 | 3.5 | 7.0 | 0.00 | 0.00 | 0.00 | 38 | 1015.2 |
| 20260505203031 | 77 | 165 | 5.2 | 9.6 | 0.00 | 0.00 | 0.00 | 37 | 1015.4 |
| 20260505201527 | 78 | 231 | 4.3 | 7.8 | 0.00 | 0.00 | 0.00 | 37 | 1015.6 |
| 20260505200032 | 79 | 243 | 4.3 | 11.3 | 0.00 | 0.00 | 0.00 | 36 | 1015.6 |
| 20260505194518 | 78 | 158 | 0.9 | 9.6 | 0.00 | 0.00 | 0.00 | 38 | 1016.2 |
| 20260505193023 | 77 | 214 | 0.9 | 10.4 | 0.00 | 0.00 | 0.00 | 40 | 1016.5 |
| 20260505191526 | 78 | 320 | 4.3 | 10.4 | 0.00 | 0.00 | 0.00 | 36 | 1016.7 |
| 20260505190034 | 77 | 176 | 2.6 | 13.0 | 0.00 | 0.00 | 0.00 | 38 | 1016.9 |
| 20260505184529 | 77 | 245 | 4.3 | 13.0 | 0.00 | 0.00 | 0.00 | 35 | 1017.0 |
| 20260505183019 | 77 | 250 | 4.3 | 8.7 | 0.00 | 0.00 | 0.00 | 37 | 1017.0 |
| 20260505181503 | 75 | 235 | 4.3 | 9.6 | 0.00 | 0.00 | 0.00 | 38 | 1017.2 |
| 20260505180008 | 76 | 82 | 3.5 | 13.0 | 0.00 | 0.00 | 0.00 | 38 | 1017.6 |
| 20260505174510 | 77 | 340 | 3.5 | 13.9 | 0.00 | 0.00 | 0.00 | 37 | 1017.9 |
| 20260505173039 | 76 | 248 | 6.1 | 12.2 | 0.00 | 0.00 | 0.00 | 31 | 1017.9 |
| 20260505171527 | 76 | 274 | 7.0 | 12.2 | 0.00 | 0.00 | 0.00 | 34 | 1018.1 |
| 20260505170014 | 75 | 281 | 3.5 | 7.0 | 0.00 | 0.00 | 0.00 | 40 | 1017.8 |
| 20260505164508 | 75 | 335 | 1.7 | 9.6 | 0.00 | 0.00 | 0.00 | 39 | 1017.7 |
| 20260505163019 | 75 | 254 | 3.5 | 7.0 | 0.00 | 0.00 | 0.00 | 44 | 1018.0 |
| 20260505161516 | 74 | 153 | 3.5 | 7.0 | 0.00 | 0.00 | 0.00 | 45 | 1018.1 |
| 20260505153009 | 73 | 195 | 2.6 | 7.0 | 0.00 | 0.00 | 0.00 | 49 | 1018.6 |
| 20260505151509 | 72 | 129 | 2.6 | 5.2 | 0.00 | 0.00 | 0.00 | 54 | 1018.8 |
| 20260505124515 | 62 | 229 | 1.7 | 3.5 | 0.00 | 0.00 | 0.00 | 71 | 1018.1 |
| 20260505123027 | 59 | 141 | 0.0 | 1.7 | 0.00 | 0.00 | 0.00 | 74 | 1018.0 |
| 20260505121526 | 56 | 38 | 0.0 | 0.0 | 0.00 | 0.00 | 0.00 | 80 | 1017.9 |
| 20260505120052 | 52 | 38 | 0.0 | 0.9 | 0.00 | 0.00 | 0.00 | 85 | 1017.8 |
| 20260505114512 | 50 | 57 | 0.9 | 1.7 | 0.00 | 0.00 | 0.00 | 89 | 1017.7 |
| 20260505113027 | 48 | 135 | 0.0 | 0.9 | 0.00 | 0.00 | 0.00 | 91 | 1017.6 |
| 20260505111521 | 47 | 135 | 0.0 | 0.9 | 0.00 | 0.00 | 0.00 | 91 | 1017.6 |
| 20260505101522 | 44 | 131 | 0.0 | 0.0 | 0.00 | 0.00 | 0.00 | 91 | 1017.4 |
| 20260505100027 | 44 | 131 | 0.0 | 0.0 | 0.00 | 0.00 | 0.00 | 90 | 1017.3 |
| 20260505094524 | 45 | 131 | 0.0 | 0.0 | 0.00 | 0.00 | 0.00 | 90 | 1017.3 |
| 20260505093010 | 46 | 131 | 0.0 | 0.9 | 0.00 | 0.00 | 0.00 | 89 | 1017.3 |
| 20260505091524 | 46 | 131 | 0.0 | 0.9 | 0.00 | 0.00 | 0.00 | 90 | 1017.2 |
| 20260505090035 | 46 | 131 | 0.0 | 0.0 | 0.00 | 0.00 | 0.00 | 89 | 1017.0 |
| 20260505084516 | 46 | 131 | 0.0 | 0.0 | 0.00 | 0.00 | 0.00 | 89 | 1016.8 |
| 20260505083017 | 47 | 131 | 0.0 | 0.0 | 0.00 | 0.00 | 0.00 | 88 | 1016.7 |
| 20260505081512 | 47 | 131 | 0.0 | 0.0 | 0.00 | 0.00 | 0.00 | 87 | 1016.7 |
| 20260505080013 | 48 | 131 | 0.0 | 0.0 | 0.00 | 0.00 | 0.00 | 86 | 1016.7 |
| 20260505074514 | 48 | 131 | 0.0 | 0.9 | 0.00 | 0.00 | 0.00 | 84 | 1016.6 |
| 20260505073028 | 48 | 131 | 0.0 | 0.0 | 0.00 | 0.00 | 0.00 | 84 | 1016.6 |
| 20260505071519 | 49 | 131 | 0.0 | 0.0 | 0.00 | 0.00 | 0.00 | 83 | 1016.6 |
| 20260505070012 | 50 | 120 | 0.0 | 1.7 | 0.00 | 0.00 | 0.00 | 82 | 1016.7 |
| 20260505064532 | 50 | 199 | 0.0 | 0.0 | 0.00 | 0.00 | 0.00 | 82 | 1016.7 |
| 20260505063018 | 51 | 199 | 0.0 | 0.0 | 0.00 | 0.00 | 0.00 | 83 | 1016.6 |
| 20260505061530 | 51 | 200 | 0.0 | 0.0 | 0.00 | 0.00 | 0.00 | 82 | 1016.7 |
| 20260505060019 | 51 | 199 | 0.0 | 0.0 | 0.00 | 0.00 | 0.00 | 80 | 1016.5 |
| 20260505054512 | 52 | 200 | 0.0 | 0.0 | 0.00 | 0.00 | 0.00 | 78 | 1016.6 |
| 20260505053016 | 53 | 200 | 0.0 | 0.0 | 0.00 | 0.00 | 0.00 | 78 | 1016.7 |
| 20260505051521 | 53 | 199 | 0.0 | 0.0 | 0.00 | 0.00 | 0.00 | 75 | 1016.9 |
| 20260505041516 | 55 | 204 | 0.0 | 0.0 | 0.00 | 0.00 | 0.00 | 71 | 1016.8 |
| 20260505040021 | 55 | 204 | 0.0 | 0.0 | 0.00 | 0.00 | 0.00 | 70 | 1016.8 |
| 20260505034523 | 56 | 203 | 0.0 | 0.0 | 0.00 | 0.00 | 0.00 | 68 | 1017.0 |
| 20260505033022 | 57 | 204 | 0.0 | 0.0 | 0.00 | 0.00 | 0.00 | 67 | 1017.0 |
| 20260505031539 | 58 | 204 | 0.0 | 0.0 | 0.00 | 0.00 | 0.00 | 64 | 1017.0 |
| 20260505030020 | 59 | 203 | 0.0 | 0.9 | 0.00 | 0.00 | 0.00 | 63 | 1017.0 |
| 20260505024532 | 59 | 192 | 0.0 | 1.7 | 0.00 | 0.00 | 0.00 | 65 | 1017.1 |
| 20260505023027 | 58 | 163 | 0.0 | 0.0 | 0.00 | 0.00 | 0.00 | 67 | 1016.8 |
| 20260505021527 | 58 | 163 | 0.0 | 0.0 | 0.00 | 0.00 | 0.00 | 66 | 1016.7 |
| 20260505020026 | 58 | 163 | 0.0 | 0.0 | 0.00 | 0.00 | 0.00 | 65 | 1016.7 |
| 20260505014523 | 59 | 163 | 0.0 | 0.0 | 0.00 | 0.00 | 0.00 | 62 | 1016.5 |
| 20260505013004 | 60 | 163 | 0.0 | 0.0 | 0.00 | 0.00 | 0.00 | 61 | 1016.2 |
| 20260505011504 | 62 | 163 | 0.0 | 0.0 | 0.00 | 0.00 | 0.00 | 59 | 1016.1 |
| 20260505010009 | 63 | 162 | 0.0 | 0.0 | 0.00 | 0.00 | 0.00 | 56 | 1016.1 |
| 20260505004533 | 64 | 162 | 0.0 | 0.0 | 0.00 | 0.00 | 0.00 | 52 | 1016.0 |
| 20260505003017 | 66 | 163 | 0.0 | 0.9 | 0.00 | 0.00 | 0.00 | 51 | 1015.9 |
| 20260505001519 | 68 | 156 | 0.0 | 0.0 | 0.00 | 0.00 | 0.00 | 48 | 1015.9 |
| 20260505000009 | 70 | 155 | 0.0 | 0.9 | 0.00 | 0.00 | 0.00 | 45 | 1015.8 |
| 20260504234509 | 72 | 203 | 0.9 | 2.6 | 0.00 | 0.00 | 0.00 | 41 | 1015.7 |
| 20260504233016 | 74 | 205 | 1.7 | 4.3 | 0.00 | 0.00 | 0.00 | 37 | 1015.5 |
| 20260504231517 | 75 | 188 | 0.9 | 3.5 | 0.00 | 0.00 | 0.00 | 37 | 1015.5 |
| 20260504230018 | 75 | 150 | 0.9 | 3.5 | 0.00 | 0.00 | 0.00 | 35 | 1015.5 |
| 20260504224509 | 76 | 205 | 0.9 | 6.1 | 0.00 | 0.00 | 0.00 | 34 | 1015.4 |
| 20260504223012 | 76 | 224 | 0.9 | 5.2 | 0.00 | 0.00 | 0.00 | 31 | 1015.5 |
| 20260504221516 | 76 | 188 | 2.6 | 6.1 | 0.00 | 0.00 | 0.00 | 30 | 1015.5 |
| 20260504220020 | 77 | 234 | 3.5 | 8.7 | 0.00 | 0.00 | 0.00 | 29 | 1015.6 |
| 20260504214526 | 77 | 280 | 3.5 | 9.6 | 0.00 | 0.00 | 0.00 | 30 | 1015.6 |